Total_Precipitation_Accumulation
1.29 1.31 1.26 1.16 1.16 1.17 1.18 1.25 1.35 1.20 0.90 0.70 0.67 0.67 0.71 0.73 0.81 0.78 0.72 0.86 0.87 0.83 0.85 0.86 0.84 0.82 0.81 0.83 0.92 1.08 1.19 1.24 1.29 1.37 1.44 1.42 1.36 1.40
1.13 1.20 1.21 1.15 1.12 1.14 1.17 1.21 1.29 1.35 1.14 0.77 0.66 0.66 0.71 0.73 0.80 0.71 0.66 0.79 0.78 0.75 0.74 0.73 0.72 0.70 0.69 0.70 0.72 0.80 0.90 0.99 1.06 1.18 1.36 1.50 1.56 1.58
0.99 1.02 1.05 1.08 1.13 1.14 1.15 1.20 1.24 1.31 1.27 0.94 0.76 0.75 0.79 0.78 0.78 0.71 0.64 0.62 0.61 0.71 0.67 0.64 0.62 0.62 0.62 0.61 0.62 0.65 0.69 0.76 0.86 0.99 1.12 1.28 1.40 1.44
0.85 0.90 0.91 0.95 1.00 1.04 1.11 1.17 1.20 1.22 1.24 1.08 0.85 0.77 0.75 0.73 0.70 0.67 0.62 0.56 0.51 0.62 0.61 0.57 0.56 0.54 0.53 0.52 0.55 0.60 0.62 0.65 0.71 0.78 0.86 0.98 1.11 1.23
0.75 0.78 0.81 0.86 0.92 0.94 0.98 1.02 1.03 1.05 1.10 1.06 0.88 0.73 0.68 0.64 0.64 0.60 0.55 0.51 0.46 0.50 0.52 0.52 0.52 0.52 0.53 0.53 0.54 0.55 0.55 0.53 0.55 0.60 0.67 0.78 0.88 0.97
0.71 0.74 0.76 0.80 0.82 0.84 0.88 0.90 0.91 0.92 0.94 0.97 0.90 0.80 0.73 0.68 0.70 0.67 0.61 0.55 0.50 0.45 0.51 0.51 0.53 0.52 0.49 0.46 0.45 0.47 0.49 0.50 0.55 0.61 0.66 0.72 0.79 0.87
0.70 0.72 0.75 0.83 0.85 0.83 0.81 0.80 0.81 0.86 0.91 0.98 0.94 0.80 0.68 0.64 0.64 0.60 0.59 0.59 0.58 0.53 0.52 0.47 0.43 0.39 0.37 0.39 0.42 0.45 0.48 0.53 0.57 0.61 0.66 0.72 0.77 0.84
0.68 0.66 0.66 0.71 0.70 0.72 0.72 0.71 0.76 0.84 0.94 0.99 0.89 0.73 0.58 0.52 0.51 0.57 0.62 0.68 0.61 0.44 0.45 0.44 0.41 0.40 0.36 0.34 0.43 0.46 0.47 0.48 0.51 0.53 0.56 0.62 0.68 0.75
0.64 0.59 0.56 0.54 0.56 0.49 0.53 0.58 0.60 0.69 0.72 0.66 0.60 0.52 0.49 0.48 0.58 0.67 0.66 0.65 0.53 0.39 0.46 0.49 0.43 0.41 0.35 0.36 0.43 0.41 0.41 0.43 0.47 0.52 0.54 0.57 0.61 0.66
0.49 0.45 0.41 0.38 0.38 0.39 0.42 0.49 0.48 0.46 0.46 0.43 0.41 0.39 0.40 0.43 0.54 0.67 0.69 0.68 0.55 0.44 0.44 0.47 0.38 0.35 0.32 0.33 0.41 0.41 0.40 0.43 0.49 0.55 0.58 0.59 0.61 0.65
0.38 0.35 0.35 0.33 0.39 0.46 0.46 0.47 0.38 0.33 0.37 0.42 0.44 0.44 0.45 0.46 0.48 0.59 0.71 0.79 0.69 0.46 0.37 0.40 0.34 0.32 0.32 0.31 0.35 0.41 0.41 0.43 0.45 0.47 0.50 0.54 0.58 0.64
0.29 0.30 0.35 0.35 0.42 0.49 0.46 0.41 0.35 0.31 0.32 0.36 0.39 0.41 0.40 0.42 0.48 0.49 0.64 0.89 0.79 0.56 0.31 0.37 0.39 0.46 0.59 0.36 0.30 0.33 0.36 0.40 0.44 0.46 0.49 0.54 0.59 0.63
0.26 0.26 0.29 0.40 0.46 0.50 0.44 0.36 0.37 0.41 0.38 0.36 0.37 0.38 0.39 0.42 0.44 0.43 0.50 0.84 1.06 0.77 0.36 0.60 0.76 0.59 0.75 0.52 0.32 0.30 0.32 0.35 0.40 0.44 0.49 0.54 0.64 0.77
0.24 0.24 0.28 0.40 0.43 0.41 0.39 0.39 0.44 0.43 0.35 0.38 0.40 0.39 0.36 0.35 0.35 0.37 0.40 0.46 0.62 0.70 0.51 0.78 1.14 0.86 0.96 0.79 0.44 0.34 0.33 0.35 0.43 0.52 0.58 0.67 0.71 0.78
0.26 0.29 0.33 0.34 0.33 0.33 0.37 0.42 0.42 0.37 0.36 0.39 0.40 0.37 0.35 0.34 0.37 0.41 0.43 0.43 0.43 0.41 0.43 0.53 0.80 0.87 1.07 1.03 0.66 0.42 0.41 0.40 0.43 0.57 0.66 0.71 0.71 0.75
0.31 0.31 0.30 0.29 0.30 0.31 0.33 0.36 0.37 0.38 0.42 0.44 0.41 0.38 0.38 0.41 0.44 0.46 0.50 0.51 0.54 0.46 0.41 0.42 0.51 0.79 0.97 0.75 0.76 0.63 0.52 0.58 0.53 0.63 0.72 0.75 0.79 0.83
0.40 0.35 0.32 0.31 0.31 0.30 0.30 0.32 0.34 0.38 0.43 0.43 0.47 0.48 0.47 0.47 0.45 0.45 0.53 0.58 0.62 0.49 0.43 0.42 0.46 0.54 0.64 0.69 0.74 0.60 0.55 0.61 0.70 0.82 0.95 0.97 0.90 0.94
0.52 0.41 0.33 0.31 0.32 0.31 0.32 0.34 0.37 0.41 0.45 0.50 0.54 0.58 0.60 0.58 0.54 0.48 0.51 0.60 0.61 0.50 0.46 0.45 0.52 0.64 0.61 0.54 0.57 0.67 0.70 0.77 0.82 0.88 1.04 1.22 1.06 0.92
0.49 0.37 0.29 0.27 0.28 0.32 0.36 0.40 0.41 0.42 0.50 0.59 0.65 0.68 0.71 0.68 0.64 0.60 0.56 0.58 0.56 0.50 0.47 0.50 0.65 0.96 0.99 0.62 0.41 0.59 0.91 1.00 0.94 0.96 1.03 1.23 1.37 1.14
0.35 0.30 0.28 0.29 0.32 0.37 0.41 0.44 0.47 0.49 0.54 0.59 0.64 0.70 0.78 0.81 0.74 0.66 0.62 0.65 0.66 0.59 0.51 0.47 0.57 0.94 1.36 1.16 0.84 0.62 0.74 1.08 1.30 1.34 1.12 0.98 1.03 1.03
0.26 0.27 0.30 0.35 0.40 0.44 0.47 0.50 0.55 0.58 0.57 0.62 0.65 0.70 0.79 0.89 0.80 0.68 0.68 0.66 0.72 0.71 0.63 0.48 0.47 0.66 0.99 1.19 1.00 0.65 0.67 0.79 1.13 1.54 1.49 1.28 1.05 0.94
0.28 0.32 0.36 0.42 0.50 0.55 0.57 0.59 0.60 0.57 0.59 0.64 0.65 0.69 0.75 0.86 0.87 0.78 0.76 0.77 0.72 0.69 0.65 0.53 0.51 0.61 0.81 1.05 0.89 0.63 0.62 0.60 0.62 0.73 1.09 1.60 2.12 2.20
0.36 0.40 0.44 0.49 0.56 0.61 0.63 0.63 0.61 0.57 0.57 0.66 0.71 0.72 0.76 0.81 0.78 0.82 0.82 0.83 0.83 0.75 0.69 0.63 0.55 0.56 0.61 0.70 0.78 0.69 0.61 0.56 0.52 0.57 0.78 0.96 1.22 1.51